Weather History for Seward, AK

Change the Weather History Date:

Wednesday, February 19, 2014

  Actual Average Record
Temperature  
Mean Temperature 24 °F -  
Max Temperature 28 °F 31 °F 46 °F (1998)
Min Temperature 21 °F 21 °F 1 °F (1974)
Degree Days  
Heating Degree Days 40    
Moisture  
Dew Point 18 °F    
Average Humidity 83    
Maximum Humidity 93    
Minimum Humidity 63    
Precipitation  
Precipitation 0.02 in - - ()
Sea Level Pressure  
Sea Level Pressure 29.47 in    
Wind  
Wind Speed 7 mph (North)    
Max Wind Speed 14 mph    
Max Gust Speed 21 mph    
Visibility 4 miles    
Events Fog , Snow    
Averages and records for this station are not official NWS values.
T = Trace of Precipitation, MM = Missing Value Source: NWS Daily Summary

Daily Weather History Graph

Daily Weather History Graph

Search for Another Location

Airport:

Trip Planner

Search our weather history database for the weather conditions in past years. The results will help you decide how hot, cold, wet, or windy it might be!

Date:

Astronomy

Feb. 19, 2014 Rise Set
Actual Time 8:24 AM AKST 5:59 PM AKST
Civil Twilight 7:41 AM AKST 6:43 PM AKST
Nautical Twilight 6:52 AM AKST 7:31 PM AKST
Astronomical Twilight 6:04 AM AKST 8:20 PM AKST
Moon No Moon Rise 9:17 AM AKST (2/19)
Length of Visible Light 11h 01m
Length of Day
9h 35m
Waning Gibbous, 78% of the Moon is Illuminated
Feb 19
Waning Gibbous
Feb 22
Last Quarter
Feb 28
New
Mar 8
First Quarter
Mar 16
Full

Hourly Weather History & Observations

Time (AKST) Temp. Windchill Dew Point Humidity Pressure Visibility Wind Dir Wind Speed Gust Speed Precip Events Conditions
12:04 AM 24.8 °F 20.5 °F 21.2 °F 86% 29.34 in 4.0 mi NNW 3.5 mph - 0.00 in Snow Light Snow
12:53 AM 24.1 °F 17.0 °F 21.9 °F 91% 29.36 in 9.0 mi NNW 5.8 mph - 0.00 in   Overcast
1:53 AM 23.0 °F 14.7 °F 19.9 °F 88% 29.37 in 9.0 mi NNW 6.9 mph - 0.00 in Snow Light Snow
2:46 AM 24.8 °F 16.9 °F 19.4 °F 80% 29.38 in 2.0 mi North 6.9 mph - 0.00 in Snow Light Snow
2:49 AM 24.8 °F 16.1 °F 19.4 °F 80% 29.38 in 1.0 mi North 8.1 mph - 0.00 in Snow Light Snow
2:57 AM 24.8 °F 16.1 °F 21.2 °F 86% 29.38 in 1.2 mi North 8.1 mph - 0.00 in Snow Light Snow
3:03 AM 23.0 °F 14.7 °F 19.4 °F 86% 29.38 in 3.0 mi North 6.9 mph - 0.00 in Snow Light Snow
3:18 AM 21.2 °F 12.6 °F 19.4 °F 93% 29.38 in 9.0 mi North 6.9 mph - 0.00 in Snow Light Snow
3:53 AM 23.0 °F 13.1 °F 18.0 °F 81% 29.39 in 10.0 mi North 9.2 mph - 0.00 in   Overcast
4:17 AM 23.0 °F 12.4 °F 17.6 °F 80% 29.39 in 2.5 mi North 10.4 mph - 0.00 in Snow Light Snow
4:21 AM 21.2 °F 8.9 °F 17.6 °F 86% 29.39 in 1.8 mi North 12.7 mph - 0.00 in Snow Light Snow
4:29 AM 21.2 °F 10.1 °F 19.4 °F 93% 29.39 in 3.0 mi North 10.4 mph - 0.00 in Snow Light Snow
4:50 AM 21.2 °F 11.7 °F 17.6 °F 86% 29.39 in 2.5 mi North 8.1 mph - 0.00 in Snow Light Snow
4:53 AM 21.9 °F 13.4 °F 18.0 °F 85% 29.39 in 4.0 mi NNE 6.9 mph - 0.00 in Snow Light Snow
5:29 AM 21.2 °F 10.1 °F 19.4 °F 93% 29.40 in 7.0 mi North 10.4 mph - 0.00 in Snow Light Snow
5:43 AM 21.2 °F 10.1 °F 17.6 °F 86% 29.40 in 5.0 mi North 10.4 mph - 0.00 in Snow Light Snow
5:53 AM 21.9 °F 14.5 °F 19.0 °F 89% 29.40 in 8.0 mi NNE 5.8 mph - 0.00 in Snow Light Snow
6:31 AM 21.2 °F 11.7 °F 17.6 °F 86% 29.41 in 2.5 mi North 8.1 mph - 0.00 in Snow Light Snow
6:45 AM 21.2 °F 12.6 °F 17.6 °F 86% 29.42 in 1.2 mi North 6.9 mph - 0.00 in Snow Light Snow
6:47 AM 21.2 °F 13.6 °F 19.4 °F 93% 29.42 in 1.0 mi North 5.8 mph - 0.00 in Snow Light Snow
6:53 AM 21.9 °F 15.7 °F 18.0 °F 85% 29.42 in 0.8 mi North 4.6 mph - 0.00 in Snow Light Snow
7:03 AM 21.2 °F 14.9 °F 19.4 °F 93% 29.43 in 0.8 mi NNE 4.6 mph - 0.00 in Snow Light Snow
7:18 AM 21.2 °F 11.7 °F 19.4 °F 93% 29.43 in 1.2 mi North 8.1 mph - 0.00 in Snow Light Snow
7:30 AM 21.2 °F 12.6 °F 17.6 °F 86% 29.43 in 1.8 mi North 6.9 mph - 0.00 in Snow Light Snow
7:38 AM 21.2 °F 10.1 °F 17.6 °F 86% 29.43 in 3.0 mi NNE 10.4 mph - 0.00 in Snow Light Snow
7:46 AM 21.2 °F 10.9 °F 17.6 °F 86% 29.43 in 5.0 mi North 9.2 mph - 0.00 in Snow Light Snow
7:53 AM 21.9 °F 11.0 °F 17.1 °F 82% 29.44 in 7.0 mi NNE 10.4 mph - 0.00 in Snow Light Snow
8:35 AM 21.2 °F 10.9 °F 17.6 °F 86% 29.45 in 4.0 mi North 9.2 mph - 0.00 in Snow Light Snow
8:48 AM 21.2 °F 12.6 °F 17.6 °F 86% 29.46 in 1.8 mi North 6.9 mph - 0.00 in Snow Light Snow
8:53 AM 21.9 °F 13.4 °F 18.0 °F 85% 29.46 in 1.2 mi North 6.9 mph - 0.00 in Snow Light Snow
9:05 AM 21.2 °F 13.6 °F 19.4 °F 93% 29.47 in 1.0 mi NNE 5.8 mph - 0.00 in Snow Light Snow
9:13 AM 21.2 °F 11.7 °F 17.6 °F 86% 29.47 in 1.2 mi NNE 8.1 mph - 0.00 in Snow Light Snow
9:23 AM 21.2 °F 13.6 °F 19.4 °F 93% 29.47 in 0.8 mi NNE 5.8 mph - 0.00 in Snow Light Snow
9:32 AM 21.2 °F 11.7 °F 19.4 °F 93% 29.47 in 0.5 mi North 8.1 mph - 0.00 in Fog , Snow Snow
9:53 AM 21.9 °F 11.7 °F 19.0 °F 89% 29.48 in 1.0 mi North 9.2 mph - 0.00 in Snow Light Snow
10:00 AM 21.2 °F 11.7 °F 17.6 °F 86% 29.48 in 1.5 mi NNE 8.1 mph - 0.00 in Snow Light Snow
10:37 AM 21.2 °F 10.9 °F 19.4 °F 93% 29.49 in 0.8 mi North 9.2 mph - 0.00 in Snow Light Snow
10:53 AM 23.0 °F 13.9 °F 19.0 °F 85% 29.51 in 1.2 mi NNE 8.1 mph - 0.00 in Snow Light Snow
10:59 AM 23.0 °F 17.0 °F 19.4 °F 86% 29.51 in 3.0 mi NNE 4.6 mph - 0.00 in Snow Light Snow
11:05 AM 23.0 °F - 19.4 °F 86% 29.51 in 1.8 mi Calm Calm - 0.00 in Snow Light Snow
11:09 AM 23.0 °F 18.4 °F 19.4 °F 86% 29.51 in 0.8 mi NNE 3.5 mph - 0.00 in Snow Light Snow
11:21 AM 24.8 °F 20.5 °F 19.4 °F 80% 29.52 in 1.0 mi North 3.5 mph - 0.00 in Snow Light Snow
11:30 AM 23.0 °F 14.7 °F 19.4 °F 86% 29.52 in 0.5 mi North 6.9 mph - 0.00 in Fog , Snow Snow
11:42 AM 23.0 °F 14.7 °F 19.4 °F 86% 29.52 in 1.0 mi North 6.9 mph - 0.00 in Snow Light Snow
11:50 AM 24.8 °F 16.9 °F 19.4 °F 80% 29.52 in 2.0 mi North 6.9 mph - 0.00 in Snow Light Snow
11:51 AM 24.1 °F 16.0 °F 19.9 °F 84% 29.52 in 2.0 mi North 6.9 mph - 0.00 in Snow Light Snow
11:59 AM 24.8 °F 16.1 °F 19.4 °F 80% 29.51 in 2.5 mi North 8.1 mph - 0.00 in Snow Light Snow
12:07 PM 24.8 °F 16.1 °F 19.4 °F 80% 29.52 in 7.0 mi NNE 8.1 mph - 0.00 in Snow Light Snow
12:53 PM 25.0 °F 14.8 °F 18.0 °F 75% 29.53 in 10.0 mi North 10.4 mph - 0.00 in   Overcast
1:53 PM 26.1 °F 19.4 °F 19.9 °F 78% 29.54 in 6.0 mi North 5.8 mph - 0.00 in Snow Light Snow
2:53 PM 28.0 °F 18.1 °F 18.0 °F 66% 29.55 in 10.0 mi North 11.5 mph - 0.01 in   Partly Cloudy
3:53 PM 26.1 °F 17.6 °F 16.0 °F 66% 29.56 in 10.0 mi North 8.1 mph - N/A   Clear
4:53 PM 26.1 °F 15.6 °F 15.1 °F 63% 29.57 in 10.0 mi North 11.5 mph - 0.01 in   Clear
5:53 PM 25.0 °F 14.8 °F 14.0 °F 63% 29.59 in 10.0 mi NNW 10.4 mph 18.4 mph N/A   Partly Cloudy
6:53 PM 23.0 °F 13.1 °F 14.0 °F 68% 29.61 in 10.0 mi NNE 9.2 mph 17.3 mph N/A   Clear
7:53 PM 23.0 °F 12.4 °F 14.0 °F 68% 29.63 in 10.0 mi North 10.4 mph - N/A   Clear
8:53 PM 23.0 °F 11.1 °F 12.0 °F 63% 29.64 in 10.0 mi North 12.7 mph 20.7 mph N/A   Clear
9:53 PM 21.0 °F 9.3 °F 12.9 °F 71% 29.65 in 10.0 mi NNE 11.5 mph - N/A   Clear
10:53 PM 21.9 °F 9.8 °F 12.9 °F 68% 29.67 in 10.0 mi North 12.7 mph - N/A   Clear
11:53 PM 21.9 °F 9.2 °F 10.9 °F 63% 29.69 in 10.0 mi North 13.8 mph - N/A   Clear